Вернуться в каталог

ATLAS 14E R/B

АктивенHEO
NORAD 15272·ROCKET BODY·🇺🇸 United States

Запущен Sep 8, 1984 с Vandenberg Space Force Base

Loading…

Ближайшие Пролёты (ближайшие 24 часа)

TLE

СвежийSource: Space-Track

Эпоха: Sep 13, 2026, 04:33 UTC

1 15272U 84097B   26256.19004220 -.00000011  00000-0  00000-0 0  9997
2 15272  64.9645 273.6880 5172621 282.0338  81.2882  3.90011429598366

Отслеживайте ATLAS 14E R/B в реальном времени с AllMySat

Download on the App Store